Year,Month,Day,Hour,Minute,Value (Times are PST for temperature in C)
2015,10,16,00,00,8.90
2015,10,16,00,01,8.90
2015,10,16,00,02,8.90
2015,10,16,00,03,8.90
2015,10,16,00,04,8.90
2015,10,16,00,05,8.90
2015,10,16,00,06,9.00
2015,10,16,00,07,9.00
2015,10,16,00,08,9.00
2015,10,16,00,09,8.90
2015,10,16,00,10,9.00
2015,10,16,00,11,8.90
2015,10,16,00,12,8.90
2015,10,16,00,13,8.90
2015,10,16,00,14,8.90
2015,10,16,00,15,8.90
2015,10,16,00,16,8.90
2015,10,16,00,17,8.80
2015,10,16,00,18,8.80
2015,10,16,00,19,8.80
2015,10,16,00,20,8.80
2015,10,16,00,21,8.80
2015,10,16,00,22,8.80
2015,10,16,00,23,8.70
2015,10,16,00,24,8.70
2015,10,16,00,25,8.70
2015,10,16,00,26,8.70
2015,10,16,00,27,8.70
2015,10,16,00,28,8.70
2015,10,16,00,29,8.70
2015,10,16,00,30,8.70
2015,10,16,00,31,8.70
2015,10,16,00,32,8.70
2015,10,16,00,33,8.60
2015,10,16,00,34,8.60
2015,10,16,00,35,8.60
2015,10,16,00,36,8.60
2015,10,16,00,37,8.50
2015,10,16,00,38,8.50
2015,10,16,00,39,8.50
2015,10,16,00,40,8.50
2015,10,16,00,41,8.40
2015,10,16,00,42,8.40
2015,10,16,00,43,8.40
2015,10,16,00,44,8.40
2015,10,16,00,45,8.40
2015,10,16,00,46,8.40
2015,10,16,00,47,8.30
2015,10,16,00,48,8.30
2015,10,16,00,49,8.30
2015,10,16,00,50,8.30
2015,10,16,00,51,8.30
2015,10,16,00,52,8.30
2015,10,16,00,53,8.30
2015,10,16,00,54,8.30
2015,10,16,00,55,8.30
2015,10,16,00,56,8.30
2015,10,16,00,57,8.40
2015,10,16,00,58,8.40
2015,10,16,00,59,8.40
2015,10,16,01,00,8.40
2015,10,16,01,01,8.40
2015,10,16,01,02,8.40
2015,10,16,01,03,8.40
2015,10,16,01,04,8.40
2015,10,16,01,05,8.50
2015,10,16,01,06,8.50
2015,10,16,01,07,8.50
2015,10,16,01,08,8.50
2015,10,16,01,09,8.50
2015,10,16,01,10,8.50
2015,10,16,01,11,8.50
2015,10,16,01,12,8.50
2015,10,16,01,13,8.50
2015,10,16,01,14,8.50
2015,10,16,01,15,8.50
2015,10,16,01,16,8.50
2015,10,16,01,17,8.50
2015,10,16,01,18,8.40
2015,10,16,01,19,8.40
2015,10,16,01,20,8.40
2015,10,16,01,21,8.40
2015,10,16,01,22,8.30
2015,10,16,01,23,8.30
2015,10,16,01,24,8.20
2015,10,16,01,25,8.20
2015,10,16,01,26,8.20
2015,10,16,01,27,8.20
2015,10,16,01,28,8.10
2015,10,16,01,29,8.10
2015,10,16,01,30,8.10
2015,10,16,01,31,8.20
2015,10,16,01,32,8.20
2015,10,16,01,33,8.20
2015,10,16,01,34,8.20
2015,10,16,01,35,8.20
2015,10,16,01,36,8.20
2015,10,16,01,37,8.20
2015,10,16,01,38,8.20
2015,10,16,01,39,8.20
2015,10,16,01,40,8.20
2015,10,16,01,41,8.20
2015,10,16,01,42,8.30
2015,10,16,01,43,8.30
2015,10,16,01,44,8.30
2015,10,16,01,45,8.30
2015,10,16,01,46,8.30
2015,10,16,01,47,8.40
2015,10,16,01,48,8.40
2015,10,16,01,49,8.40
2015,10,16,01,50,8.40
2015,10,16,01,51,8.50
2015,10,16,01,52,8.50
2015,10,16,01,53,8.50
2015,10,16,01,54,8.50
2015,10,16,01,55,8.60
2015,10,16,01,56,8.60
2015,10,16,01,57,8.60
2015,10,16,01,58,8.50
2015,10,16,01,59,8.50
2015,10,16,02,00,8.50
2015,10,16,02,01,8.40
2015,10,16,02,02,8.40
2015,10,16,02,03,8.40
2015,10,16,02,04,8.40
2015,10,16,02,05,8.40
2015,10,16,02,06,8.40
2015,10,16,02,07,8.30
2015,10,16,02,08,8.30
2015,10,16,02,09,8.30
2015,10,16,02,10,8.30
2015,10,16,02,11,8.30
2015,10,16,02,12,8.30
2015,10,16,02,13,8.30
2015,10,16,02,14,8.30
2015,10,16,02,15,8.30
2015,10,16,02,16,8.30
2015,10,16,02,17,8.30
2015,10,16,02,18,8.30
2015,10,16,02,19,8.30
2015,10,16,02,20,8.20
2015,10,16,02,21,8.20
2015,10,16,02,22,8.20
2015,10,16,02,23,8.20
2015,10,16,02,24,8.20
2015,10,16,02,25,8.20
2015,10,16,02,26,8.20
2015,10,16,02,27,8.20
2015,10,16,02,28,8.20
2015,10,16,02,29,8.20
2015,10,16,02,30,8.20
2015,10,16,02,31,8.20
2015,10,16,02,32,8.30
2015,10,16,02,33,8.30
2015,10,16,02,34,8.30
2015,10,16,02,35,8.30
2015,10,16,02,36,8.30
2015,10,16,02,37,8.30
2015,10,16,02,38,8.20
2015,10,16,02,39,8.20
2015,10,16,02,40,8.20
2015,10,16,02,41,8.20
2015,10,16,02,42,8.20
2015,10,16,02,43,8.30
2015,10,16,02,44,8.30
2015,10,16,02,45,8.30
2015,10,16,02,46,8.30
2015,10,16,02,47,8.30
2015,10,16,02,48,8.30
2015,10,16,02,49,8.20
2015,10,16,02,50,8.20
2015,10,16,02,51,8.10
2015,10,16,02,52,8.10
2015,10,16,02,53,8.00
2015,10,16,02,54,8.00
2015,10,16,02,55,7.90
2015,10,16,02,56,7.90
2015,10,16,02,57,7.90
2015,10,16,02,58,7.90
2015,10,16,02,59,7.90
2015,10,16,03,00,7.90
2015,10,16,03,01,7.90
2015,10,16,03,02,7.90
2015,10,16,03,03,7.80
2015,10,16,03,04,7.80
2015,10,16,03,05,7.80
2015,10,16,03,06,7.80
2015,10,16,03,07,7.80
2015,10,16,03,08,7.80
2015,10,16,03,09,7.80
2015,10,16,03,10,7.80
2015,10,16,03,11,7.90
2015,10,16,03,12,7.90
2015,10,16,03,13,8.00
2015,10,16,03,14,8.00
2015,10,16,03,15,8.00
2015,10,16,03,16,8.00
2015,10,16,03,17,8.00
2015,10,16,03,18,8.00
2015,10,16,03,19,8.10
2015,10,16,03,20,8.10
2015,10,16,03,21,8.20
2015,10,16,03,22,8.20
2015,10,16,03,23,8.30
2015,10,16,03,24,8.30
2015,10,16,03,25,8.30
2015,10,16,03,26,8.30
2015,10,16,03,27,8.30
2015,10,16,03,28,8.30
2015,10,16,03,29,8.30
2015,10,16,03,30,8.30
2015,10,16,03,31,8.30
2015,10,16,03,32,8.40
2015,10,16,03,33,8.40
2015,10,16,03,34,8.30
2015,10,16,03,35,8.30
2015,10,16,03,36,8.30
2015,10,16,03,37,8.30
2015,10,16,03,38,8.20
2015,10,16,03,39,8.20
2015,10,16,03,40,8.20
2015,10,16,03,41,8.10
2015,10,16,03,42,8.10
2015,10,16,03,43,8.10
2015,10,16,03,44,8.10
2015,10,16,03,45,8.00
2015,10,16,03,46,8.00
2015,10,16,03,47,7.90
2015,10,16,03,48,7.90
2015,10,16,03,49,7.90
2015,10,16,03,50,7.90
2015,10,16,03,51,7.90
2015,10,16,03,52,8.00
2015,10,16,03,53,8.00
2015,10,16,03,54,8.00
2015,10,16,03,55,8.10
2015,10,16,03,56,8.10
2015,10,16,03,57,8.10
2015,10,16,03,58,8.10
2015,10,16,03,59,8.10
2015,10,16,04,00,8.10
2015,10,16,04,01,8.10
2015,10,16,04,02,8.10
2015,10,16,04,03,8.10
2015,10,16,04,04,8.10
2015,10,16,04,05,8.10
2015,10,16,04,06,8.10
2015,10,16,04,07,8.10
2015,10,16,04,08,8.10
2015,10,16,04,09,8.10
2015,10,16,04,10,8.10
2015,10,16,04,11,8.10
2015,10,16,04,12,8.10
2015,10,16,04,13,8.10
2015,10,16,04,14,8.00
2015,10,16,04,15,8.00
2015,10,16,04,16,8.00
2015,10,16,04,17,8.00
2015,10,16,04,18,8.00
2015,10,16,04,19,8.00
2015,10,16,04,20,7.90
2015,10,16,04,21,7.90
2015,10,16,04,22,7.90
2015,10,16,04,23,7.90
2015,10,16,04,24,7.90
2015,10,16,04,25,7.90
2015,10,16,04,26,7.90
2015,10,16,04,27,7.90
2015,10,16,04,28,7.90
2015,10,16,04,29,7.90
2015,10,16,04,30,8.00
2015,10,16,04,31,8.00
2015,10,16,04,32,8.10
2015,10,16,04,33,8.10
2015,10,16,04,34,8.10
2015,10,16,04,35,8.20
2015,10,16,04,36,8.20
2015,10,16,04,37,8.20
2015,10,16,04,38,8.20
2015,10,16,04,39,8.20
2015,10,16,04,40,8.20
2015,10,16,04,41,8.20
2015,10,16,04,42,8.20
2015,10,16,04,43,8.10
2015,10,16,04,44,8.10
2015,10,16,04,45,8.00
2015,10,16,04,46,8.00
2015,10,16,04,47,7.90
2015,10,16,04,48,7.90
2015,10,16,04,49,7.80
2015,10,16,04,50,7.80
2015,10,16,04,51,7.80
2015,10,16,04,52,7.80
2015,10,16,04,53,7.80
2015,10,16,04,54,7.80
2015,10,16,04,55,7.80
2015,10,16,04,56,7.80
2015,10,16,04,57,7.80
2015,10,16,04,58,7.70
2015,10,16,04,59,7.70
2015,10,16,05,00,7.70
2015,10,16,05,01,7.70
2015,10,16,05,02,7.70
2015,10,16,05,03,7.70
2015,10,16,05,04,7.70
2015,10,16,05,05,7.70
2015,10,16,05,06,7.70
2015,10,16,05,07,7.70
2015,10,16,05,08,7.70
2015,10,16,05,09,7.70
2015,10,16,05,10,7.70
2015,10,16,05,11,7.70
2015,10,16,05,12,7.60
2015,10,16,05,13,7.60
2015,10,16,05,14,7.60
2015,10,16,05,15,7.60
2015,10,16,05,16,7.60
2015,10,16,05,17,7.60
2015,10,16,05,18,7.60
2015,10,16,05,19,7.60
2015,10,16,05,20,7.60
2015,10,16,05,21,7.60
2015,10,16,05,22,7.60
2015,10,16,05,23,7.60
2015,10,16,05,24,7.60
2015,10,16,05,25,7.60
2015,10,16,05,26,7.70
2015,10,16,05,27,7.70
2015,10,16,05,28,7.70
2015,10,16,05,29,7.70
2015,10,16,05,30,7.70
2015,10,16,05,31,7.70
2015,10,16,05,32,7.80
2015,10,16,05,33,7.80
2015,10,16,05,34,7.80
2015,10,16,05,35,7.80
2015,10,16,05,36,7.80
2015,10,16,05,37,7.80
2015,10,16,05,38,7.70
2015,10,16,05,39,7.70
2015,10,16,05,40,7.70
2015,10,16,05,41,7.70
2015,10,16,05,42,7.70
2015,10,16,05,43,7.70
2015,10,16,05,44,7.60
2015,10,16,05,45,7.60
2015,10,16,05,46,7.60
2015,10,16,05,47,7.60
2015,10,16,05,48,7.50
2015,10,16,05,49,7.50
2015,10,16,05,50,7.50
2015,10,16,05,51,7.40
2015,10,16,05,52,7.40
2015,10,16,05,53,7.40
2015,10,16,05,54,7.40
2015,10,16,05,55,7.40
2015,10,16,05,56,7.40
2015,10,16,05,57,7.40
2015,10,16,05,58,7.40
2015,10,16,05,59,7.40
2015,10,16,06,00,7.50
2015,10,16,06,01,7.50
2015,10,16,06,02,7.50
2015,10,16,06,03,7.60
2015,10,16,06,04,7.60
2015,10,16,06,05,7.60
2015,10,16,06,06,7.60
2015,10,16,06,07,7.60
2015,10,16,06,08,7.60
2015,10,16,06,09,7.60
2015,10,16,06,10,7.60
2015,10,16,06,11,7.60
2015,10,16,06,12,7.60
2015,10,16,06,13,7.60
2015,10,16,06,14,7.60
2015,10,16,06,15,7.60
2015,10,16,06,16,7.60
2015,10,16,06,17,7.60
2015,10,16,06,18,7.60
2015,10,16,06,19,7.70
2015,10,16,06,20,7.70
2015,10,16,06,21,7.70
2015,10,16,06,22,7.80
2015,10,16,06,23,7.80
2015,10,16,06,24,7.80
2015,10,16,06,25,7.80
2015,10,16,06,26,7.80
2015,10,16,06,27,7.80
2015,10,16,06,28,7.80
2015,10,16,06,29,7.70
2015,10,16,06,30,7.70
2015,10,16,06,31,7.60
2015,10,16,06,32,7.60
2015,10,16,06,33,7.60
2015,10,16,06,34,7.50
2015,10,16,06,35,7.50
2015,10,16,06,36,7.50
2015,10,16,06,37,7.50
2015,10,16,06,38,7.50
2015,10,16,06,39,7.50
2015,10,16,06,40,7.50
2015,10,16,06,41,7.50
2015,10,16,06,42,7.50
2015,10,16,06,43,7.50
2015,10,16,06,44,7.50
2015,10,16,06,45,7.50
2015,10,16,06,46,7.50
2015,10,16,06,47,7.50
2015,10,16,06,48,7.50
2015,10,16,06,49,7.50
2015,10,16,06,50,7.50
2015,10,16,06,51,7.50
2015,10,16,06,52,7.60
2015,10,16,06,53,7.60
2015,10,16,06,54,7.60
2015,10,16,06,55,7.60
2015,10,16,06,56,7.70
2015,10,16,06,57,7.60
2015,10,16,06,58,7.60
2015,10,16,06,59,7.60
2015,10,16,07,00,7.60
2015,10,16,07,01,7.60
2015,10,16,07,02,7.60
2015,10,16,07,03,7.50
2015,10,16,07,04,7.50
2015,10,16,07,05,7.40
2015,10,16,07,06,7.40
2015,10,16,07,07,7.40
2015,10,16,07,08,7.40
2015,10,16,07,09,7.40
2015,10,16,07,10,7.40
2015,10,16,07,11,7.30
2015,10,16,07,12,7.30
2015,10,16,07,13,7.30
2015,10,16,07,14,7.30
2015,10,16,07,15,7.30
2015,10,16,07,16,7.30
2015,10,16,07,17,7.30
2015,10,16,07,18,7.30
2015,10,16,07,19,7.30
2015,10,16,07,20,7.30
2015,10,16,07,21,7.30
2015,10,16,07,22,7.30
2015,10,16,07,23,7.30
2015,10,16,07,24,7.30
2015,10,16,07,25,7.30
2015,10,16,07,26,7.40
2015,10,16,07,27,7.40
2015,10,16,07,28,7.40
2015,10,16,07,29,7.50
2015,10,16,07,30,7.50
2015,10,16,07,31,7.50
2015,10,16,07,32,7.50
2015,10,16,07,33,7.50
2015,10,16,07,34,7.50
2015,10,16,07,35,7.40
2015,10,16,07,36,7.40
2015,10,16,07,37,7.40
2015,10,16,07,38,7.40
2015,10,16,07,39,7.40
2015,10,16,07,40,7.40
2015,10,16,07,41,7.30
2015,10,16,07,42,7.30
2015,10,16,07,43,7.30
2015,10,16,07,44,7.30
2015,10,16,07,45,7.30
2015,10,16,07,46,7.30
2015,10,16,07,47,7.30
2015,10,16,07,48,7.30
2015,10,16,07,49,7.30
2015,10,16,07,50,7.30
2015,10,16,07,51,7.30
2015,10,16,07,52,7.30
2015,10,16,07,53,7.30
2015,10,16,07,54,7.30
2015,10,16,07,55,7.30
2015,10,16,07,56,7.30
2015,10,16,07,57,7.30
2015,10,16,07,58,7.30
2015,10,16,07,59,7.30
2015,10,16,08,00,7.30
2015,10,16,08,01,7.30
2015,10,16,08,02,7.40
2015,10,16,08,03,7.40
2015,10,16,08,04,7.40
2015,10,16,08,05,7.40
2015,10,16,08,06,7.40
2015,10,16,08,07,7.40
2015,10,16,08,08,7.50
2015,10,16,08,09,7.50
2015,10,16,08,10,7.50
2015,10,16,08,11,7.60
2015,10,16,08,12,7.60
2015,10,16,08,13,7.60
2015,10,16,08,14,7.60
2015,10,16,08,15,7.60
2015,10,16,08,16,7.70
2015,10,16,08,17,7.70
2015,10,16,08,18,7.70
2015,10,16,08,19,7.80
2015,10,16,08,20,7.80
2015,10,16,08,21,7.90
2015,10,16,08,22,7.90
2015,10,16,08,23,7.90
2015,10,16,08,24,8.00
2015,10,16,08,25,8.00
2015,10,16,08,26,8.10
2015,10,16,08,27,8.20
2015,10,16,08,28,8.20
2015,10,16,08,29,8.30
2015,10,16,08,30,8.40
2015,10,16,08,31,8.50
2015,10,16,08,32,8.50
2015,10,16,08,33,8.60
2015,10,16,08,34,8.60
2015,10,16,08,35,8.70
2015,10,16,08,36,8.70
2015,10,16,08,37,8.70
2015,10,16,08,38,8.80
2015,10,16,08,39,8.80
2015,10,16,08,40,8.80
2015,10,16,08,41,8.90
2015,10,16,08,42,8.90
2015,10,16,08,43,9.00
2015,10,16,08,44,9.10
2015,10,16,08,45,9.10
2015,10,16,08,46,9.10
2015,10,16,08,47,9.20
2015,10,16,08,48,9.20
2015,10,16,08,49,9.30
2015,10,16,08,50,9.40
2015,10,16,08,51,9.40
2015,10,16,08,52,9.60
2015,10,16,08,53,9.70
2015,10,16,08,54,9.80
2015,10,16,08,55,10.00
2015,10,16,08,56,10.10
2015,10,16,08,57,10.30
2015,10,16,08,58,10.40
2015,10,16,08,59,10.60
2015,10,16,09,00,10.80
2015,10,16,09,01,10.90
2015,10,16,09,02,11.10
2015,10,16,09,03,11.20
2015,10,16,09,04,11.40
2015,10,16,09,05,11.50
2015,10,16,09,06,11.60
2015,10,16,09,07,11.80
2015,10,16,09,08,11.90
2015,10,16,09,09,12.00
2015,10,16,09,10,12.10
2015,10,16,09,11,12.20
2015,10,16,09,12,12.30
2015,10,16,09,13,12.30
2015,10,16,09,14,12.30
2015,10,16,09,15,12.30
2015,10,16,09,16,12.30
2015,10,16,09,17,12.30
2015,10,16,09,18,12.30
2015,10,16,09,19,12.30
2015,10,16,09,20,12.30
2015,10,16,09,21,12.40
2015,10,16,09,22,12.40
2015,10,16,09,23,12.30
2015,10,16,09,24,12.40
2015,10,16,09,25,12.40
2015,10,16,09,26,12.40
2015,10,16,09,27,12.50
2015,10,16,09,28,12.50
2015,10,16,09,29,12.60
2015,10,16,09,30,12.60
2015,10,16,09,31,12.70
2015,10,16,09,32,12.80
2015,10,16,09,33,12.80
2015,10,16,09,34,13.00
2015,10,16,09,35,13.00
2015,10,16,09,36,13.20
2015,10,16,09,37,13.30
2015,10,16,09,38,13.40
2015,10,16,09,39,13.50
2015,10,16,09,40,13.60
2015,10,16,09,41,13.70
2015,10,16,09,42,13.80
2015,10,16,09,43,13.90
2015,10,16,09,44,14.10
2015,10,16,09,45,14.20
2015,10,16,09,46,14.30
2015,10,16,09,47,14.40
2015,10,16,09,48,14.50
2015,10,16,09,49,14.70
2015,10,16,09,50,14.80
2015,10,16,09,51,14.90
2015,10,16,09,52,15.00
2015,10,16,09,53,15.20
2015,10,16,09,54,15.30
2015,10,16,09,55,15.40
2015,10,16,09,56,15.50
2015,10,16,09,57,15.60
2015,10,16,09,58,15.70
2015,10,16,09,59,15.80
2015,10,16,10,00,15.90
2015,10,16,10,01,16.10
2015,10,16,10,02,16.20
2015,10,16,10,03,16.30
2015,10,16,10,04,16.40
2015,10,16,10,05,16.40
2015,10,16,10,06,16.50
2015,10,16,10,07,16.60
2015,10,16,10,08,16.70
2015,10,16,10,09,16.70
2015,10,16,10,10,16.80
2015,10,16,10,11,16.80
2015,10,16,10,12,16.90
2015,10,16,10,13,16.90
2015,10,16,10,14,17.00
2015,10,16,10,15,17.00
2015,10,16,10,16,17.00
2015,10,16,10,17,17.10
2015,10,16,10,18,17.20
2015,10,16,10,19,17.20
2015,10,16,10,20,17.20
2015,10,16,10,21,17.30
2015,10,16,10,22,17.30
2015,10,16,10,23,17.20
2015,10,16,10,24,17.20
2015,10,16,10,25,17.20
2015,10,16,10,26,17.20
2015,10,16,10,27,17.20
2015,10,16,10,28,17.20
2015,10,16,10,29,17.30
2015,10,16,10,30,17.30
2015,10,16,10,31,17.30
2015,10,16,10,32,17.30
2015,10,16,10,33,17.30
2015,10,16,10,34,17.40
2015,10,16,10,35,17.40
2015,10,16,10,36,17.50
2015,10,16,10,37,17.60
2015,10,16,10,38,17.60
2015,10,16,10,39,17.60
2015,10,16,10,40,17.70
2015,10,16,10,41,17.70
2015,10,16,10,42,17.70
2015,10,16,10,43,17.70
2015,10,16,10,44,17.70
2015,10,16,10,45,17.80
2015,10,16,10,46,17.80
2015,10,16,10,47,17.80
2015,10,16,10,48,17.80
2015,10,16,10,49,17.70
2015,10,16,10,50,17.70
2015,10,16,10,51,17.70
2015,10,16,10,52,17.70
2015,10,16,10,53,17.70
2015,10,16,10,54,17.70
2015,10,16,10,55,17.80
2015,10,16,10,56,17.80
2015,10,16,10,57,17.90
2015,10,16,10,58,18.00
2015,10,16,10,59,18.10
2015,10,16,11,00,18.20
2015,10,16,11,01,18.30
2015,10,16,11,02,18.30
2015,10,16,11,03,18.40
2015,10,16,11,04,18.40
2015,10,16,11,05,18.40
2015,10,16,11,06,18.40
2015,10,16,11,07,18.40
2015,10,16,11,08,18.30
2015,10,16,11,09,18.30
2015,10,16,11,10,18.30
2015,10,16,11,11,18.30
2015,10,16,11,12,18.30
2015,10,16,11,13,18.30
2015,10,16,11,14,18.30
2015,10,16,11,15,18.30
2015,10,16,11,16,18.30
2015,10,16,11,17,18.30
2015,10,16,11,18,18.30
2015,10,16,11,19,18.30
2015,10,16,11,20,18.30
2015,10,16,11,21,18.20
2015,10,16,11,22,18.20
2015,10,16,11,23,18.10
2015,10,16,11,24,18.10
2015,10,16,11,25,18.10
2015,10,16,11,26,18.10
2015,10,16,11,27,18.10
2015,10,16,11,28,18.20
2015,10,16,11,29,18.20
2015,10,16,11,30,18.10
2015,10,16,11,31,18.10
2015,10,16,11,32,18.10
2015,10,16,11,33,18.10
2015,10,16,11,34,18.10
2015,10,16,11,35,18.00
2015,10,16,11,36,18.00
2015,10,16,11,37,18.00
2015,10,16,11,38,18.00
2015,10,16,11,39,18.00
2015,10,16,11,40,18.00
2015,10,16,11,41,18.10
2015,10,16,11,42,18.10
2015,10,16,11,43,18.10
2015,10,16,11,44,18.20
2015,10,16,11,45,18.20
2015,10,16,11,46,18.20
2015,10,16,11,47,18.30
2015,10,16,11,48,18.30
2015,10,16,11,49,18.30
2015,10,16,11,50,18.40
2015,10,16,11,51,18.40
2015,10,16,11,52,18.50
2015,10,16,11,53,18.50
2015,10,16,11,54,18.60
2015,10,16,11,55,18.60
2015,10,16,11,56,18.70
2015,10,16,11,57,18.70
2015,10,16,11,58,18.70
2015,10,16,11,59,18.70
2015,10,16,12,00,18.70
2015,10,16,12,01,18.70
2015,10,16,12,02,18.70
2015,10,16,12,03,18.70
2015,10,16,12,04,18.60
2015,10,16,12,05,18.60
2015,10,16,12,06,18.60
2015,10,16,12,07,18.70
2015,10,16,12,08,18.70
2015,10,16,12,09,18.80
2015,10,16,12,10,18.90
2015,10,16,12,11,19.00
2015,10,16,12,12,19.10
2015,10,16,12,13,19.10
2015,10,16,12,14,19.10
2015,10,16,12,15,19.10
2015,10,16,12,16,19.10
2015,10,16,12,17,19.10
2015,10,16,12,18,19.00
2015,10,16,12,19,19.00
2015,10,16,12,20,19.00
2015,10,16,12,21,18.90
2015,10,16,12,22,18.80
2015,10,16,12,23,18.80
2015,10,16,12,24,18.60
2015,10,16,12,25,18.60
2015,10,16,12,26,18.60
2015,10,16,12,27,18.50
2015,10,16,12,28,18.50
2015,10,16,12,29,18.40
2015,10,16,12,30,18.40
2015,10,16,12,31,18.40
2015,10,16,12,32,18.40
2015,10,16,12,33,18.30
2015,10,16,12,34,18.30
2015,10,16,12,35,18.40
2015,10,16,12,36,18.40
2015,10,16,12,37,18.40
2015,10,16,12,38,18.50
2015,10,16,12,39,18.50
2015,10,16,12,40,18.60
2015,10,16,12,41,18.60
2015,10,16,12,42,18.80
2015,10,16,12,43,18.80
2015,10,16,12,44,18.80
2015,10,16,12,45,18.80
2015,10,16,12,46,18.80
2015,10,16,12,47,18.80
2015,10,16,12,48,18.80
2015,10,16,12,49,18.90
2015,10,16,12,50,18.90
2015,10,16,12,51,18.90
2015,10,16,12,52,18.80
2015,10,16,12,53,18.80
2015,10,16,12,54,18.80
2015,10,16,12,55,18.80
2015,10,16,12,56,18.80
2015,10,16,12,57,18.80
2015,10,16,12,58,18.80
2015,10,16,12,59,18.80
2015,10,16,13,00,18.80
2015,10,16,13,01,18.80
2015,10,16,13,02,18.80
2015,10,16,13,03,18.80
2015,10,16,13,04,18.90
2015,10,16,13,05,18.90
2015,10,16,13,06,19.00
2015,10,16,13,07,19.00
2015,10,16,13,08,19.10
2015,10,16,13,09,19.20
2015,10,16,13,10,19.20
2015,10,16,13,11,19.30
2015,10,16,13,12,19.30
2015,10,16,13,13,19.30
2015,10,16,13,14,19.30
2015,10,16,13,15,19.30
2015,10,16,13,16,19.30
2015,10,16,13,17,19.30
2015,10,16,13,18,19.30
2015,10,16,13,19,19.40
2015,10,16,13,20,19.40
2015,10,16,13,21,19.50
2015,10,16,13,22,19.50
2015,10,16,13,23,19.40
2015,10,16,13,24,19.40
2015,10,16,13,25,19.40
2015,10,16,13,26,19.40
2015,10,16,13,27,19.40
2015,10,16,13,28,19.40
2015,10,16,13,29,19.40
2015,10,16,13,30,19.40
2015,10,16,13,31,19.40
2015,10,16,13,32,19.40
2015,10,16,13,33,19.40
2015,10,16,13,34,19.40
2015,10,16,13,35,19.40
2015,10,16,13,36,19.40
2015,10,16,13,37,19.40
2015,10,16,13,38,19.40
2015,10,16,13,39,19.40
2015,10,16,13,40,19.40
2015,10,16,13,41,19.40
2015,10,16,13,42,19.50
2015,10,16,13,43,19.50
2015,10,16,13,44,19.60
2015,10,16,13,45,19.60
2015,10,16,13,46,19.60
2015,10,16,13,47,19.50
2015,10,16,13,48,19.50
2015,10,16,13,49,19.50
2015,10,16,13,50,19.40
2015,10,16,13,51,19.40
2015,10,16,13,52,19.50
2015,10,16,13,53,19.50
2015,10,16,13,54,19.60
2015,10,16,13,55,19.60
2015,10,16,13,56,19.60
2015,10,16,13,57,19.60
2015,10,16,13,58,19.60
2015,10,16,13,59,19.70
2015,10,16,14,00,19.80
2015,10,16,14,01,19.80
2015,10,16,14,02,19.90
2015,10,16,14,03,20.00
2015,10,16,14,04,20.00
2015,10,16,14,05,20.10
2015,10,16,14,06,20.10
2015,10,16,14,07,20.10
2015,10,16,14,08,20.10
2015,10,16,14,09,20.10
2015,10,16,14,10,20.10
2015,10,16,14,11,20.10
2015,10,16,14,12,20.10
2015,10,16,14,13,20.10
2015,10,16,14,14,20.10
2015,10,16,14,15,20.10
2015,10,16,14,16,20.10
2015,10,16,14,17,20.20
2015,10,16,14,18,20.20
2015,10,16,14,19,20.20
2015,10,16,14,20,20.20
2015,10,16,14,21,20.20
2015,10,16,14,22,20.20
2015,10,16,14,23,20.20
2015,10,16,14,24,20.20
2015,10,16,14,25,20.20
2015,10,16,14,26,20.20
2015,10,16,14,27,20.30
2015,10,16,14,28,20.30
2015,10,16,14,29,20.30
2015,10,16,14,30,20.30
2015,10,16,14,31,20.30
2015,10,16,14,32,20.30
2015,10,16,14,33,20.40
2015,10,16,14,34,20.40
2015,10,16,14,35,20.40
2015,10,16,14,36,20.40
2015,10,16,14,37,20.50
2015,10,16,14,38,20.50
2015,10,16,14,39,20.50
2015,10,16,14,40,20.60
2015,10,16,14,41,20.60
2015,10,16,14,42,20.60
2015,10,16,14,43,20.60
2015,10,16,14,44,20.60
2015,10,16,14,45,20.60
2015,10,16,14,46,20.60
2015,10,16,14,47,20.60
2015,10,16,14,48,20.60
2015,10,16,14,49,20.70
2015,10,16,14,50,20.70
2015,10,16,14,51,20.80
2015,10,16,14,52,20.80
2015,10,16,14,53,20.80
2015,10,16,14,54,20.80
2015,10,16,14,55,20.70
2015,10,16,14,56,20.70
2015,10,16,14,57,20.70
2015,10,16,14,58,20.70
2015,10,16,14,59,20.70
2015,10,16,15,00,20.70
2015,10,16,15,01,20.70
2015,10,16,15,02,20.70
2015,10,16,15,03,20.70
2015,10,16,15,04,20.70
2015,10,16,15,05,20.80
2015,10,16,15,06,20.80
2015,10,16,15,07,20.80
2015,10,16,15,08,20.90
2015,10,16,15,09,20.90
2015,10,16,15,10,20.90
2015,10,16,15,11,20.90
2015,10,16,15,12,20.90
2015,10,16,15,13,20.90
2015,10,16,15,14,20.90
2015,10,16,15,15,20.90
2015,10,16,15,16,20.90
2015,10,16,15,17,20.90
2015,10,16,15,18,20.90
2015,10,16,15,19,20.80
2015,10,16,15,20,20.90
2015,10,16,15,21,20.90
2015,10,16,15,22,20.90
2015,10,16,15,23,20.90
2015,10,16,15,24,21.00
2015,10,16,15,25,21.10
2015,10,16,15,26,21.10
2015,10,16,15,27,21.10
2015,10,16,15,28,21.10
2015,10,16,15,29,21.10
2015,10,16,15,30,21.00
2015,10,16,15,31,21.00
2015,10,16,15,32,21.00
2015,10,16,15,33,21.00
2015,10,16,15,34,21.00
2015,10,16,15,35,20.90
2015,10,16,15,36,20.90
2015,10,16,15,37,20.90
2015,10,16,15,38,20.90
2015,10,16,15,39,20.80
2015,10,16,15,40,20.70
2015,10,16,15,41,20.70
2015,10,16,15,42,20.60
2015,10,16,15,43,20.50
2015,10,16,15,44,20.40
2015,10,16,15,45,20.30
2015,10,16,15,46,20.20
2015,10,16,15,47,20.10
2015,10,16,15,48,20.10
2015,10,16,15,49,20.00
2015,10,16,15,50,20.00
2015,10,16,15,51,20.00
2015,10,16,15,52,20.00
2015,10,16,15,53,19.90
2015,10,16,15,54,19.90
2015,10,16,15,55,19.90
2015,10,16,15,56,19.90
2015,10,16,15,57,19.90
2015,10,16,15,58,19.90
2015,10,16,15,59,19.90
2015,10,16,16,00,20.00
2015,10,16,16,01,20.00
2015,10,16,16,02,20.00
2015,10,16,16,03,20.10
2015,10,16,16,04,20.10
2015,10,16,16,05,20.10
2015,10,16,16,06,20.10
2015,10,16,16,07,20.10
2015,10,16,16,08,20.20
2015,10,16,16,09,20.20
2015,10,16,16,10,20.20
2015,10,16,16,11,20.20
2015,10,16,16,12,20.20
2015,10,16,16,13,20.30
2015,10,16,16,14,20.30
2015,10,16,16,15,20.30
2015,10,16,16,16,20.30
2015,10,16,16,17,20.20
2015,10,16,16,18,20.00
2015,10,16,16,19,19.90
2015,10,16,16,20,19.80
2015,10,16,16,21,19.60
2015,10,16,16,22,19.50
2015,10,16,16,23,19.40
2015,10,16,16,24,19.30
2015,10,16,16,25,19.20
2015,10,16,16,26,19.00
2015,10,16,16,27,18.80
2015,10,16,16,28,18.70
2015,10,16,16,29,18.50
2015,10,16,16,30,18.40
2015,10,16,16,31,18.20
2015,10,16,16,32,18.10
2015,10,16,16,33,17.90
2015,10,16,16,34,17.70
2015,10,16,16,35,17.50
2015,10,16,16,36,17.50
2015,10,16,16,37,17.40
2015,10,16,16,38,17.30
2015,10,16,16,39,17.20
2015,10,16,16,40,17.20
2015,10,16,16,41,17.20
2015,10,16,16,42,17.10
2015,10,16,16,43,17.10
2015,10,16,16,44,17.10
2015,10,16,16,45,17.00
2015,10,16,16,46,16.90
2015,10,16,16,47,16.90
2015,10,16,16,48,16.90
2015,10,16,16,49,16.90
2015,10,16,16,50,16.90
2015,10,16,16,51,16.90
2015,10,16,16,52,17.00
2015,10,16,16,53,17.00
2015,10,16,16,54,17.10
2015,10,16,16,55,17.10
2015,10,16,16,56,17.10
2015,10,16,16,57,17.20
2015,10,16,16,58,17.20
2015,10,16,16,59,17.20
2015,10,16,17,00,17.20
2015,10,16,17,01,17.20
2015,10,16,17,02,17.20
2015,10,16,17,03,17.20
2015,10,16,17,04,17.20
2015,10,16,17,05,17.20
2015,10,16,17,06,17.10
2015,10,16,17,07,17.20
2015,10,16,17,08,17.20
2015,10,16,17,09,17.10
2015,10,16,17,10,17.10
2015,10,16,17,11,17.00
2015,10,16,17,12,17.00
2015,10,16,17,13,16.90
2015,10,16,17,14,16.80
2015,10,16,17,15,16.80
2015,10,16,17,16,16.70
2015,10,16,17,17,16.60
2015,10,16,17,18,16.60
2015,10,16,17,19,16.50
2015,10,16,17,20,16.40
2015,10,16,17,21,16.40
2015,10,16,17,22,16.30
2015,10,16,17,23,16.30
2015,10,16,17,24,16.30
2015,10,16,17,25,16.20
2015,10,16,17,26,16.20
2015,10,16,17,27,16.20
2015,10,16,17,28,16.10
2015,10,16,17,29,16.10
2015,10,16,17,30,16.00
2015,10,16,17,31,16.00
2015,10,16,17,32,16.00
2015,10,16,17,33,15.90
2015,10,16,17,34,15.90
2015,10,16,17,35,15.90
2015,10,16,17,36,15.80
2015,10,16,17,37,15.80
2015,10,16,17,38,15.80
2015,10,16,17,39,15.80
2015,10,16,17,40,15.80
2015,10,16,17,41,15.70
2015,10,16,17,42,15.70